View from above orbital plane
|
View from above satellite
|
Ground track
|
The orbit data is extracted from the following two-line orbital elements,
1 31789U 07028A 21021.31581711 .00000511 00000-0 35343-4 0 9997
2 31789 64.5067 350.9305 0028988 218.7393 141.1651 15.17571323748239
Epoch (UTC): | 21 January 2021 07:34:46 |
Eccentricity: | 0.0028988 |
inclination: | 64.5067° |
perigee height: | 493 km |
apogee height: | 533 km |
right ascension of ascending node: | 350.9305° |
argument of perigee: | 218.7393° |
revolutions per day: | 15.17571323 |
mean anomaly at epoch: | 141.1651° |
orbit number at epoch: | 74823 |
The dashed part of the orbit path shows where the satellite is in the earth's shadow,
|
|